Tracking 17925 objects as of 22-January-2017
HD Live streaming from Space Station
objects crossing your sky now

ATLAS CENTAUR R/B

Track ATLAS CENTAUR R/B now!


NORAD ID: 10976
Int'l Code: 1978-068B
Perigee: 652.2 km
Apogee: 36,203.8 km
Inclination: 21.6 °
Period: 647.8 minutes
Semi major axis: 24799 km
RCS: 16.8333 m2 (large)
Launch date: June 29, 1978
Source: United States (US)
Launch site: AIR FORCE EASTERN TEST RANGE (AFETR)

Note: This is a ROCKET BODY
Your satellite tracking list
Your tracking list is empty





NASA's NSSDC Master Catalog

Two Line Element Set (TLE):
1 10976U 78068B   17021.81791850 -.00000020  00000-0  34785-3 0  9995
2 10976  21.5523 253.8908 7167941 167.5374 348.6208  2.22306057312998
Source of the keplerian elements: AFSPC